�������l�o���
Date,Time,MP-1(��Sv/h),MP-2(��Sv/h),MP-3(��Sv/h),MP-4(��Sv/h),MP-5(��Sv/h),MP-6(��Sv/h),MP-7(��Sv/h),MP-8(��Sv/h),����,����(m/s),���J
2018/04/28,00:00,0.853,1.395,0.879,1.624,1.121,0.481,0.844,0.809,���k��,3.2,��
2018/04/28,00:10,0.856,1.395,0.881,1.623,1.122,0.480,0.844,0.808,��,3.7,��
2018/04/28,00:20,0.854,1.395,0.880,1.623,1.119,0.480,0.844,0.808,���k��,5.5,��
2018/04/28,00:30,0.853,1.394,0.881,1.623,1.121,0.481,0.844,0.807,�k��,4.8,��
2018/04/28,00:40,0.853,1.396,0.881,1.623,1.120,0.480,0.845,0.807,�k��,3.0,��
2018/04/28,00:50,0.855,1.396,0.880,1.622,1.118,0.481,0.845,0.806,�k��,4.2,��
2018/04/28,01:00,0.855,1.393,0.882,1.628,1.120,0.480,0.844,0.808,�k��,4.9,��
2018/04/28,01:10,0.853,1.395,0.881,1.623,1.118,0.481,0.845,0.808,�k��,3.9,��
2018/04/28,01:20,0.853,1.393,0.881,1.625,1.119,0.480,0.845,0.808,���k��,3.0,��
2018/04/28,01:30,0.855,1.395,0.881,1.625,1.121,0.480,0.844,0.808,���k��,2.8,��
2018/04/28,01:40,0.854,1.395,0.881,1.623,1.119,0.481,0.845,0.807,�k��,3.8,��
2018/04/28,01:50,0.854,1.396,0.880,1.624,1.120,0.480,0.845,0.808,���k��,5.1,��
2018/04/28,02:00,0.853,1.393,0.881,1.623,1.120,0.479,0.844,0.806,���k��,4.6,��
2018/04/28,02:10,0.852,1.395,0.881,1.623,1.120,0.481,0.844,0.808,���k��,7.0,��
2018/04/28,02:20,0.854,1.397,0.881,1.623,1.120,0.480,0.844,0.809,���k��,7.2,��
2018/04/28,02:30,0.854,1.394,0.881,1.625,1.118,0.480,0.845,0.808,���k��,7.9,��
2018/04/28,02:40,0.853,1.395,0.881,1.623,1.120,0.480,0.844,0.807,���k��,9.3,��
2018/04/28,02:50,0.852,1.394,0.880,1.625,1.121,0.481,0.845,0.808,���k��,8.5,��
2018/04/28,03:00,0.854,1.393,0.880,1.625,1.122,0.479,0.844,0.808,���k��,6.5,��
2018/04/28,03:10,0.852,1.394,0.880,1.623,1.120,0.479,0.844,0.807,�k�k��,4.4,��
2018/04/28,03:20,0.851,1.392,0.879,1.624,1.120,0.478,0.843,0.810,�k�k��,5.3,��
2018/04/28,03:30,0.854,1.395,0.880,1.623,1.120,0.479,0.844,0.808,�k�k��,5.7,��
2018/04/28,03:40,0.852,1.395,0.880,1.624,1.116,0.480,0.843,0.808,�k�k��,5.6,��
2018/04/28,03:50,0.851,1.396,0.880,1.626,1.119,0.479,0.842,0.809,�k�k��,5.3,��
2018/04/28,04:00,0.854,1.396,0.880,1.624,1.120,0.479,0.844,0.808,�k,6.4,��
2018/04/28,04:10,0.852,1.393,0.881,1.625,1.120,0.478,0.843,0.807,�k,7.7,��
2018/04/28,04:20,0.853,1.398,0.880,1.625,1.119,0.480,0.845,0.807,�k,7.8,��
2018/04/28,04:30,0.852,1.396,0.881,1.622,1.120,0.478,0.844,0.807,�k�k��,7.6,��
2018/04/28,04:40,0.852,1.395,0.879,1.628,1.120,0.477,0.844,0.808,�k�k��,7.3,��
2018/04/28,04:50,0.852,1.395,0.881,1.627,1.119,0.479,0.845,0.807,�k�k��,7.5,��
2018/04/28,05:00,0.851,1.395,0.879,1.626,1.117,0.479,0.844,0.809,�k�k��,7.1,��
2018/04/28,05:10,0.851,1.395,0.881,1.626,1.118,0.478,0.842,0.808,�k�k��,8.4,��
2018/04/28,05:20,0.852,1.395,0.881,1.624,1.121,0.478,0.843,0.808,�k��,6.4,��
2018/04/28,05:30,0.852,1.396,0.880,1.625,1.119,0.479,0.846,0.807,�k��,6.3,��
2018/04/28,05:40,0.853,1.395,0.879,1.624,1.120,0.477,0.843,0.807,�k��,5.5,��
2018/04/28,05:50,0.850,1.393,0.881,1.628,1.118,0.479,0.844,0.807,�k�k��,4.9,��
2018/04/28,06:00,0.851,1.396,0.880,1.627,1.118,0.478,0.844,0.807,�k�k��,5.0,��
2018/04/28,06:10,0.852,1.395,0.880,1.627,1.120,0.479,0.843,0.808,�k��,5.9,��
2018/04/28,06:20,0.852,1.397,0.881,1.625,1.120,0.479,0.845,0.807,�k��,6.8,��
2018/04/28,06:30,0.852,1.397,0.883,1.626,1.120,0.480,0.845,0.807,�k��,6.6,��
2018/04/28,06:40,0.852,1.396,0.881,1.626,1.121,0.478,0.845,0.808,�k�k��,4.0,��
2018/04/28,06:50,0.853,1.396,0.882,1.625,1.121,0.480,0.846,0.806,�k�k��,3.9,��
2018/04/28,07:00,0.852,1.398,0.883,1.624,1.120,0.479,0.845,0.809,�k��,5.4,��
2018/04/28,07:10,0.852,1.397,0.880,1.629,1.121,0.477,0.845,0.807,�k��,5.8,��
2018/04/28,07:20,0.853,1.395,0.882,1.627,1.117,0.476,0.843,0.807,�k��,4.7,��
2018/04/28,07:30,0.852,1.395,0.881,1.627,1.119,0.476,0.845,0.808,�k�k��,6.5,��
2018/04/28,07:40,0.851,1.393,0.884,1.630,1.119,0.477,0.845,0.808,�k��,5.3,��
2018/04/28,07:50,0.853,1.396,0.883,1.631,1.120,0.477,0.843,0.810,�k��,6.2,��
2018/04/28,08:00,0.854,1.395,0.883,1.629,1.119,0.477,0.845,0.808,�k��,8.9,��
2018/04/28,08:10,0.855,1.396,0.885,1.628,1.121,0.477,0.844,0.808,�k��,6.6,��
2018/04/28,08:20,0.855,1.396,0.884,1.629,1.122,0.477,0.843,0.808,�k��,5.2,��
2018/04/28,08:30,0.853,1.396,0.883,1.630,1.122,0.477,0.844,0.806,�k��,5.6,��
2018/04/28,08:40,0.854,1.395,0.883,1.632,1.121,0.478,0.845,0.806,�k��,4.2,��
2018/04/28,08:50,0.853,1.398,0.884,1.632,1.124,0.478,0.844,0.807,���k��,2.5,��
2018/04/28,09:00,0.852,1.400,0.882,1.631,1.122,0.479,0.844,0.806,���k��,3.7,��
2018/04/28,09:10,0.854,1.397,0.881,1.633,1.122,0.478,0.843,0.807,�k��,5.2,��
2018/04/28,09:20,0.853,1.398,0.880,1.631,1.121,0.479,0.843,0.805,�k��,7.1,��
2018/04/28,09:30,0.854,1.400,0.879,1.630,1.123,0.477,0.841,0.805,�k��,7.2,��
2018/04/28,09:40,0.853,1.397,0.883,1.630,1.123,0.477,0.843,0.806,�k�k��,7.3,��
2018/04/28,09:50,0.856,1.398,0.880,1.632,1.124,0.478,0.845,0.805,�k�k��,7.1,��
2018/04/28,10:00,0.854,1.401,0.881,1.634,1.123,0.477,0.843,0.807,�k��,6.8,��
2018/04/28,10:10,0.852,1.401,0.879,1.632,1.123,0.478,0.843,0.806,�k��,6.5,��
2018/04/28,10:20,0.855,1.401,0.881,1.635,1.125,0.477,0.843,0.805,�k�k��,7.1,��
2018/04/28,10:30,0.854,1.401,0.882,1.632,1.122,0.478,0.843,0.803,�k�k��,7.0,��
2018/04/28,10:40,0.853,1.402,0.882,1.634,1.125,0.478,0.842,0.805,�k�k��,6.1,��
2018/04/28,10:50,0.855,1.401,0.882,1.631,1.125,0.478,0.844,0.805,�k�k��,5.6,��
2018/04/28,11:00,0.854,1.400,0.881,1.633,1.124,0.477,0.844,0.804,�k��,5.2,��
2018/04/28,11:10,0.855,1.399,0.881,1.634,1.126,0.478,0.844,0.806,�k�k��,5.5,��
2018/04/28,11:20,0.857,1.402,0.884,1.637,1.129,0.478,0.844,0.805,�k,5.0,��
2018/04/28,11:30,0.857,1.404,0.883,1.632,1.130,0.479,0.844,0.808,�k�k��,4.3,��
2018/04/28,11:40,0.856,1.403,0.884,1.630,1.127,0.479,0.844,0.806,�k�k��,4.1,��
2018/04/28,11:50,0.857,1.403,0.884,1.630,1.128,0.478,0.845,0.806,�k��,3.6,��
2018/04/28,12:00,0.856,1.404,0.883,1.631,1.129,0.480,0.845,0.807,���k��,3.1,��
2018/04/28,12:10,0.856,1.405,0.884,1.633,1.130,0.479,0.844,0.807,���쓌,3.0,��
2018/04/28,12:20,0.859,1.406,0.883,1.633,1.130,0.480,0.845,0.807,��,3.0,��
2018/04/28,12:30,0.857,1.405,0.884,1.634,1.131,0.479,0.845,0.806,�쓌,3.1,��
2018/04/28,12:40,0.857,1.407,0.884,1.631,1.132,0.479,0.843,0.807,���쓌,3.2,��
2018/04/28,12:50,0.857,1.403,0.884,1.633,1.131,0.479,0.844,0.806,���쓌,1.5,��
2018/04/28,13:00,0.856,1.406,0.884,1.634,1.131,0.478,0.843,0.808,�쓌,3.0,��
2018/04/28,13:10,0.857,1.407,0.885,1.637,1.131,0.479,0.846,0.807,���쓌,2.6,��
2018/04/28,13:20,0.859,1.408,0.886,1.636,1.131,0.479,0.845,0.807,��,2.3,��
2018/04/28,13:30,0.860,1.407,0.884,1.638,1.131,0.480,0.844,0.805,��쓌,4.7,��
2018/04/28,13:40,0.859,1.408,0.886,1.639,1.131,0.478,0.845,0.805,��쓌,4.9,��
2018/04/28,13:50,0.859,1.407,0.884,1.640,1.132,0.480,0.843,0.806,��쓌,5.5,��
2018/04/28,14:00,0.858,1.409,0.885,1.640,1.132,0.479,0.845,0.807,��쓌,5.3,��
2018/04/28,14:10,0.860,1.410,0.884,1.639,1.132,0.479,0.844,0.807,��쓌,4.6,��
2018/04/28,14:20,0.857,1.407,0.885,1.635,1.134,0.479,0.845,0.808,�쓌,3.3,��
2018/04/28,14:30,0.859,1.407,0.886,1.637,1.135,0.478,0.845,0.808,��쓌,4.3,��
2018/04/28,14:40,0.860,1.409,0.886,1.639,1.134,0.479,0.845,0.808,��쓌,3.2,��
2018/04/28,14:50,0.860,1.409,0.888,1.636,1.134,0.479,0.847,0.808,���쓌,2.8,��
2018/04/28,15:00,0.860,1.411,0.885,1.638,1.137,0.481,0.845,0.807,���쓌,3.0,��
2018/04/28,15:10,0.858,1.411,0.888,1.638,1.135,0.481,0.845,0.805,�쓌,2.5,��
2018/04/28,15:20,0.859,1.410,0.885,1.633,1.135,0.480,0.846,0.807,�쓌,2.5,��
2018/04/28,15:30,0.859,1.413,0.888,1.640,1.134,0.482,0.845,0.807,�쓌,3.0,��
2018/04/28,15:40,0.859,1.409,0.886,1.638,1.135,0.480,0.845,0.808,��쓌,4.5,��
2018/04/28,15:50,0.859,1.410,0.887,1.636,1.136,0.480,0.846,0.808,��쓌,5.3,��
2018/04/28,16:00,0.861,1.412,0.886,1.637,1.133,0.480,0.845,0.804,��쓌,3.8,��
2018/04/28,16:10,0.859,1.409,0.887,1.639,1.136,0.479,0.845,0.806,��,6.8,��
2018/04/28,16:20,0.858,1.409,0.886,1.637,1.134,0.481,0.844,0.806,��,6.7,��
2018/04/28,16:30,0.861,1.409,0.887,1.639,1.133,0.480,0.845,0.806,��,7.8,��
2018/04/28,16:40,0.858,1.415,0.886,1.639,1.136,0.482,0.847,0.807,��,7.8,��
2018/04/28,16:50,0.860,1.414,0.888,1.637,1.134,0.483,0.846,0.807,��쓌,6.7,��
2018/04/28,17:00,0.861,1.413,0.887,1.639,1.133,0.483,0.846,0.807,��쓌,6.7,��
2018/04/28,17:10,0.862,1.411,0.888,1.637,1.136,0.482,0.846,0.808,��,8.3,��
2018/04/28,17:20,0.859,1.414,0.887,1.640,1.136,0.482,0.847,0.807,��쓌,6.8,��
2018/04/28,17:30,0.859,1.417,0.887,1.637,1.133,0.482,0.845,0.809,��,6.9,��
2018/04/28,17:40,0.858,1.413,0.887,1.639,1.134,0.483,0.846,0.811,��,8.1,��
2018/04/28,17:50,0.858,1.416,0.886,1.638,1.134,0.482,0.847,0.810,��쓌,6.9,��
2018/04/28,18:00,0.861,1.416,0.886,1.641,1.137,0.482,0.845,0.810,��,8.1,��
2018/04/28,18:10,0.858,1.414,0.887,1.640,1.136,0.481,0.844,0.810,��쓌,7.0,��
2018/04/28,18:20,0.862,1.417,0.888,1.641,1.135,0.483,0.844,0.809,��,8.9,��
2018/04/28,18:30,0.862,1.418,0.888,1.641,1.131,0.484,0.846,0.810,��,7.2,��
2018/04/28,18:40,0.861,1.416,0.887,1.642,1.134,0.485,0.845,0.809,��쓌,7.9,��
2018/04/28,18:50,0.863,1.415,0.887,1.641,1.134,0.483,0.846,0.810,��,7.8,��
2018/04/28,19:00,0.864,1.413,0.890,1.642,1.131,0.482,0.847,0.809,��,7.8,��
2018/04/28,19:10,0.863,1.415,0.890,1.639,1.133,0.482,0.846,0.808,��,8.7,��
2018/04/28,19:20,0.862,1.414,0.890,1.640,1.133,0.483,0.846,0.809,��,7.1,��
2018/04/28,19:30,0.860,1.415,0.889,1.642,1.134,0.482,0.847,0.809,��,6.6,��
2018/04/28,19:40,0.861,1.414,0.889,1.641,1.133,0.484,0.845,0.810,��,5.9,��
2018/04/28,19:50,0.862,1.414,0.890,1.640,1.136,0.482,0.846,0.810,��,5.8,��
2018/04/28,20:00,0.860,1.416,0.890,1.641,1.139,0.482,0.846,0.809,��,5.7,��
2018/04/28,20:10,0.860,1.414,0.888,1.641,1.137,0.482,0.845,0.810,��,5.8,��
2018/04/28,20:20,0.860,1.415,0.890,1.640,1.135,0.483,0.848,0.809,��쐼,6.4,��
2018/04/28,20:30,0.861,1.418,0.890,1.643,1.137,0.483,0.848,0.809,��쐼,6.7,��
2018/04/28,20:40,0.860,1.417,0.891,1.639,1.139,0.483,0.848,0.809,��,7.2,��
2018/04/28,20:50,0.863,1.412,0.889,1.645,1.139,0.482,0.846,0.810,��쐼,7.6,��
2018/04/28,21:00,0.861,1.414,0.889,1.643,1.139,0.483,0.846,0.809,��쐼,7.7,��
2018/04/28,21:10,0.861,1.416,0.888,1.640,1.136,0.482,0.847,0.809,��쐼,8.3,��
2018/04/28,21:20,0.862,1.412,0.889,1.641,1.139,0.480,0.846,0.808,��쐼,7.7,��
2018/04/28,21:30,0.863,1.414,0.888,1.642,1.137,0.481,0.846,0.809,��,7.4,��
2018/04/28,21:40,0.862,1.415,0.890,1.641,1.136,0.483,0.848,0.809,��,6.6,��
2018/04/28,21:50,0.862,1.410,0.891,1.641,1.135,0.483,0.847,0.810,��,6.8,��
2018/04/28,22:00,0.861,1.411,0.889,1.640,1.136,0.481,0.847,0.809,��,7.7,��
2018/04/28,22:10,0.859,1.413,0.890,1.641,1.135,0.482,0.846,0.808,��,8.2,��
2018/04/28,22:20,0.859,1.412,0.889,1.639,1.136,0.482,0.848,0.809,��,8.6,��
2018/04/28,22:30,0.860,1.413,0.889,1.640,1.134,0.482,0.846,0.807,��쐼,8.2,��
2018/04/28,22:40,0.860,1.414,0.887,1.640,1.135,0.481,0.846,0.810,��쐼,9.3,��
2018/04/28,22:50,0.862,1.414,0.890,1.642,1.134,0.483,0.847,0.808,��쐼,10.2,��
2018/04/28,23:00,0.859,1.413,0.889,1.642,1.138,0.483,0.846,0.808,��쐼,10.5,��
2018/04/28,23:10,0.861,1.411,0.889,1.639,1.137,0.483,0.848,0.809,��쐼,10.0,��
2018/04/28,23:20,0.863,1.412,0.890,1.643,1.135,0.481,0.848,0.808,��쐼,9.5,��
2018/04/28,23:30,0.859,1.414,0.889,1.642,1.137,0.482,0.847,0.810,��쐼,8.8,��
2018/04/28,23:40,0.859,1.414,0.888,1.638,1.136,0.483,0.847,0.809,��쐼,9.2,��
2018/04/28,23:50,0.862,1.414,0.890,1.643,1.139,0.484,0.847,0.811,��쐼,9.4,��
